x

9415141 - Davis Point, San Pablo Bay, Ca (dpxc1) Weather Station

8:30pm - Mon 31st Aug 2015 All times are PDT. -7 hours from GMT.

  • Wind
    10mph, 11mph gusts
  • Air Temp 69°f
  • Sea Pressure 1010.2mb
  • 9415141 - Davis Point, San Pablo Bay, Ca
  • 9415141 - Davis Point, San Pablo Bay, Ca

More Historic Weather Station data

Upgrade to MSW Pro to gain access to the past 30 days of data for over 8000 Wavebouys and Weather Stations around the globe.

Join Pro

Comparision Forecast

View Surf forecast
   
Mon 08/31 8:30pm 10 11 mph 1010.2mb 69f
8:24pm 10 11 mph 1010.2mb 69f
8:18pm 9 11 mph 1010.2mb 69f
8:12pm 10 13 mph 1010.1mb 70f
8:06pm 10 13 mph 1010.1mb 70f
8:00pm 10 13 mph 1010.1mb 70f
7:54pm 10 13 mph 1010.1mb 71f
7:48pm 9 11 mph 1010.1mb 71f
7:42pm 10 13 mph 1010mb 72f
7:36pm 11 14 mph 1009.9mb 72f
7:30pm 11 14 mph 1009.9mb 72f
7:24pm 11 14 mph 1009.9mb 73f
7:18pm 11 14 mph - 73f
7:12pm 13 15 mph - 73f
7:06pm 14 16 mph - 73f
7:00pm 11 14 mph 1009.9mb 73f
6:54pm 13 14 mph 1009.9mb 74f
6:48pm 13 16 mph 1009.9mb 74f
6:42pm 13 15 mph 1009.9mb 74f
6:36pm 11 17 mph 1010mb 74f
6:30pm 13 15 mph 1009.9mb -
6:24pm 14 16 mph 1009.9mb -
6:18pm 14 16 mph 1009.9mb -
6:12pm 15 20 mph 1009.9mb -
6:06pm 15 18 mph 1010mb -
6:00pm 14 18 mph 1010mb 74f
5:54pm 15 18 mph 1010mb 75f
5:48pm 16 20 mph 1010mb 75f
5:42pm 14 18 mph 1010mb 76f
5:36pm 14 17 mph 1010mb 75f
5:30pm 15 17 mph 1009.9mb 76f
5:24pm 15 18 mph 1010mb 76f
5:18pm 16 20 mph 1010mb 75f
5:12pm 14 18 mph 1010.1mb 76f
5:06pm 16 20 mph 1010.1mb 77f
5:00pm 16 20 mph 1010.1mb 77f
4:54pm 14 18 mph 1010.2mb 77f
4:48pm 14 18 mph 1010.2mb 78f
4:42pm 13 20 mph 1010.3mb 77f
4:36pm 17 21 mph 1010.2mb 77f
4:00pm 17 20 mph 1010.5mb 76f
3:42pm 15 18 mph 1010.7mb 76f
3:36pm 15 20 mph 1010.7mb 75f
3:12pm 14 17 mph 1011.1mb 76f
3:06pm 17 20 mph 1011.1mb 76f
3:00pm 17 20 mph 1011.2mb 76f
2:54pm 16 18 mph 1011.2mb 76f
2:48pm 15 17 mph 1011.2mb 76f
2:42pm 14 16 mph 1011.3mb 75f
2:36pm 14 15 mph 1011.4mb 75f
2:30pm 14 16 mph 1011.4mb 75f
2:24pm 15 17 mph 1011.6mb 75f
2:18pm 14 16 mph 1011.7mb 75f
2:12pm 9 14 mph 1011.9mb 75f
2:06pm 8 13 mph 1011.9mb 75f
2:00pm 8 13 mph 1012mb 75f
1:54pm 10 15 mph 1012.2mb 74f
1:48pm 13 14 mph 1012.2mb 74f
1:42pm 8 14 mph 1012.3mb 74f
1:36pm 10 13 mph 1012.3mb 74f
1:30pm 10 13 mph 1012.3mb 74f
1:24pm 10 14 mph 1012.4mb 74f
1:18pm 10 14 mph 1012.4mb 74f
1:12pm 10 14 mph 1012.4mb 74f
1:06pm 10 14 mph 1012.5mb 73f
1:00pm 10 14 mph 1012.6mb 73f
12:54pm 10 13 mph 1012.6mb 73f
12:48pm 10 13 mph 1012.7mb 73f
12:42pm 9 14 mph 1012.8mb 73f
12:36pm 9 13 mph 1012.8mb 73f
12:30pm 9 14 mph 1012.8mb 73f
12:24pm 10 14 mph 1012.9mb 73f
12:18pm 10 13 mph 1012.9mb 73f
12:12pm 10 13 mph 1013mb 73f
12:06pm 9 13 mph 1013.1mb 73f
11:54am 9 11 mph 1013.1mb 72f
11:48am 9 13 mph 1013.2mb 72f
11:42am 9 13 mph 1013.2mb 72f
11:36am 10 14 mph 1013.2mb 72f
11:12am 8 11 mph 1013.4mb 72f
11:06am 7 10 mph 1013.4mb 72f
11:00am 7 10 mph 1013.4mb 72f
10:54am 7 10 mph 1013.4mb 72f
10:48am 7 9 mph 1013.5mb 72f
10:42am 6 8 mph 1013.5mb 72f
10:36am 6 8 mph 1013.5mb 72f
10:30am 6 8 mph 1013.5mb 72f
10:24am 6 8 mph 1013.5mb 71f
10:18am 6 9 mph 1013.5mb 71f
10:12am 6 8 mph 1013.5mb 71f
10:06am 5 7 mph 1013.5mb 71f
10:00am 6 7 mph 1013.4mb 71f
9:54am 3 6 mph 1013.4mb 70f
9:48am 2 6 mph 1013.5mb 70f
9:42am 3 5 mph 1013.5mb 70f
9:36am 5 6 mph 1013.5mb 69f
9:30am 5 6 mph 1013.5mb 68f
9:24am 3 6 mph 1013.5mb 69f
9:18am 3 5 mph 1013.6mb 68f
9:12am 3 5 mph 1013.6mb 68f
9:06am 3 6 mph 1013.6mb 67f
9:00am 5 6 mph 1013.5mb 67f
Fri 08/28 10:30am 7 8 mph 1012.8mb 73f
10:24am 8
mph
1012.8mb 72f
10:18am 8 9 mph 1012.8mb 72f
10:12am 9 10 mph 1012.9mb 72f
10:06am 8 9 mph 1012.8mb 72f
10:00am 5 8 mph 1012.9mb 73f
9:54am 6 9 mph 1012.9mb 73f
9:48am 6 8 mph 1013mb 72f
9:42am 8 10 mph 1013mb 71f
9:36am 7 10 mph 1013mb 72f
9:30am 9 10 mph 1012.9mb 71f
9:24am 8 10 mph 1012.8mb 71f
9:18am 10 11 mph 1012.8mb 71f
9:12am 8 9 mph 1012.7mb 72f
9:06am 7 8 mph 1012.7mb 72f
9:00am 7 8 mph 1012.8mb 72f
8:54am 6
mph
1012.8mb 72f
8:48am 3 6 mph 1012.8mb 72f
8:42am 3 5 mph 1012.8mb 72f
8:36am 1 2 mph 1012.8mb 71f
8:30am 2 3 mph 1012.8mb 71f
8:24am 3 6 mph 1012.8mb 71f
8:18am 3 6 mph 1012.8mb 71f
8:12am 3 6 mph 1012.8mb 71f
8:06am 3 7 mph 1012.8mb 70f
8:00am 5 7 mph 1012.8mb 70f
7:54am 2
mph
1012.7mb 69f
7:48am 2 3 mph 1012.6mb 69f
7:42am 2 3 mph 1012.5mb 69f
7:36am 2 3 mph 1012.4mb 69f
7:30am 3
mph
1012.3mb 69f
7:24am 3
mph
1012.3mb 69f
7:18am 2 3 mph 1012.2mb 69f
7:12am 3 5 mph 1012.2mb 69f
7:06am 3 5 mph 1012.3mb 69f
7:00am 5
mph
1012.2mb 69f
6:54am 5
mph
1012.2mb 68f
6:48am 5
mph
1012.2mb 68f
6:42am 5
mph
1012.1mb 68f
6:36am 5
mph
1012mb 68f
6:30am 5
mph
1012.1mb 68f
6:24am 5
mph
1012mb 68f
6:18am 5
mph
1012.1mb 68f
6:12am 5
mph
1012.1mb 69f
6:06am 5
mph
1012.1mb 69f
6:00am 3 5 mph 1012.1mb 70f
5:54am 3 5 mph 1012.1mb 70f
5:48am 3 5 mph 1012.1mb 70f
5:42am 3 5 mph 1012.1mb 70f
5:36am 3 5 mph 1012.2mb 69f
5:30am 2 5 mph 1012.2mb 69f
5:24am 3 5 mph 1012.4mb 70f
5:18am 2 3 mph 1012.3mb 71f
5:12am 2 5 mph 1012.3mb 70f
5:06am 3 6 mph 1012.4mb 70f
5:00am 5 6 mph 1012.4mb 70f
4:54am 5 6 mph 1012.3mb 70f
4:48am 5 6 mph 1012.3mb 71f
4:42am 5 7 mph 1012.4mb 70f
4:36am 6 7 mph 1012.5mb 71f
4:30am 5 7 mph 1012.6mb 71f